{"data":{"norad_id":41926,"intl_designator":"2017-003K","name":"IRIDIUM 111","alt_names":[],"object_type":"PAYLOAD","status":"ACTIVE","operator":null,"country":"US","launch_date":"2017-01-14","launch_site_code":"AFWTR","launch_vehicle":null,"mission":null,"orbit_class":"UNKNOWN","rcs_meters":2.6291,"size_class":null,"mass_kg":null,"dimensions":null,"purposes":["comms"],"wikipedia_slug":null,"has_3d_model":false,"image_url":null,"decayed_at":null,"tle_current":{"epoch":"2026-05-24T22:59:06.250272Z","epoch_age_seconds":89419,"freshness":"FRESH","line1":"1 41926U 17003K   26144.95771123  .00000143  00000+0  43936-4 0  9991","line2":"2 41926  86.3948  98.0885 0002358  85.3445 274.8020 14.34218582489920","mean_motion":14.34218582,"eccentricity":0.0002358,"inclination_deg":86.3948,"raan_deg":98.0885,"arg_perigee_deg":85.3445,"mean_anomaly_deg":274.802,"bstar":4.3936e-5,"rev_number":48992,"period_min":100.40310577987,"perigee_km":775.97704896559,"apogee_km":779.35172489966,"semimajor_km":7155.8013869326,"source":"CELESTRAK","updated_at":"2026-05-25T13:38:14.799166Z"}}}